Location: Gro�sch�nbrunn
(49.5760°N, 11.8868°E)
Time: 12:35:17
(UTC+00:00)

Cosmos 1943 - Pass Details

Date: 18 September 2020
Orbit: 833 x 850 km, 71.0° (Epoch: 21 October)

Event Time Altitude Azimuth Distance (km) Brightness Sun altitude
Rises 18:01:32 0° 330° (NNW) 3,401 7.0 -7.8°
Reaches altitude 10° 18:03:59 10° 329° (NNW) 2,465 6.3 -8.1°
Maximum altitude 18:09:38 77° 245° (WSW) 867 3.4 -9.0°
Drops below altitude 10° 18:15:16 10° 160° (SSE) 2,460 5.3 -9.9°
Sets 18:17:43 0° 159° (SSE) 3,393 6.0 -10.3°
